User: anonymous   Login
Location: Unspecified
(0.0000°N, 0.0000°E)
Time: 00:58:37
(UTC+00:00)
Language:

OBJECT M - Orbit

View from above orbital plane
View from above orbital plane
View from above satellite
View from above satellite

Ground track
Ground track

The orbit data is extracted from the following two-line orbital elements,

1 42836U 17042M   18173.61295770 +.00000238 +00000-0 +29443-4 0  9993
2 42836 097.5966 075.8865 0013197 177.5663 182.5623 14.91054289051154
Epoch (UTC): 22 June 2018 14:42:39
Eccentricity: 0.0013197
inclination: 97.5966°
perigee height: 585 km
apogee height: 604 km
right ascension of ascending node: 75.8865°
argument of perigee: 177.5663°
revolutions per day: 14.91054289
mean anomaly at epoch: 182.5623°
orbit number at epoch: 5115

The dashed part of the orbit path shows where the satellite is in the earth's shadow,  

DLR